Погода в Императрис

Бразилия     5°31′34″S   47°28′38″W
темп.,
°C
ветер,
м/с
пор.,
м/с
влажн.,
%
обл.,
%
осадки,
мм/ч
давл.,
гПа
погр.,
м
27 февраля, сб
сб2700:00+22сз009874 0.8 101123
03:00+22с119978 4.0 101027
06:00+21с129873 0.1 101131
09:00+23в269574 2.0 1012486
12:00+22юв2696100 0.7 1012359
15:00+24в1493100 1.1 1008424
18:00+24юв1394100 0.0 1008123
21:00+23в1193100 0.0 101029
28 февраля, вс
вс2800:00+22св1197100 1.9 101026
03:00+21юв1199100 5.1 100923
06:00+22всв1199100 0.6 100937
09:00+23в1395100 0.7 1011304
12:00+27всв2381100 1.0 1010791
15:00+28вюв338576 3.3 1006710
18:00+26ссз129267 3.4 100627
21:00+23в139784 6.8 100884
1 марта, пн
пн100:00+22вюв1197100 3.9 100935
03:00+22ююв1198100 6.7 100744
06:00+21ю0199100 3.1 100827
09:00+22в0098100 3.3 101067
12:00+28зсз117871 0.0 1008611
15:00+30ююв116967 0.5 10051042
18:00+26всв129374 5.0 100532
21:00+24сз019487 11.8 100824
2 марта, вт
вт200:00+23с2596100 4.4 1009165
03:00+22ссз1398100 6.5 1008123
06:00+22сз129999 1.1 100967
09:00+23сз129799 1.2 1011193
12:00+30зсз017686 0.3 1010730
15:00+28св128791 6.5 1007537
18:00+25всв1194100 6.8 100824
21:00+23вюв0193100 7.8 101024
3 марта, ср
ср300:00+23всв1296100 5.3 101243
03:00+22в1296100 7.6 101148
06:00+22юв1197100 1.2 101226
09:00+25св148898 1.2 1014525
12:00+27всв368843 2.3 1012930
15:00+29всв247265 4.3 1009938
18:00+26в018997 2.6 100924
21:00+23всв129499 3.6 101159